Time,TemperatureF,DewpointF,PressureIn,WindDirection,WindDirectionDegrees,WindSpeedMPH,WindSpeedGustMPH,Humidity,HourlyPrecipIn,Conditions,Clouds,dailyrainin,SolarRadiationWatts/m^2,SoftwareType,DateUTC
2013-01-30 00:00:00,45.0,37.0,-100.00,NE,55,6.0,9.0,72,0.00,,,0.00,0.000000,,2013-01-30 08:00:00,
2013-01-30 00:32:00,45.0,37.0,-100.00,NE,55,6.0,9.0,72,0.00,,,0.00,0.000000,,2013-01-30 08:32:00,
2013-01-30 00:42:00,45.0,37.0,-100.00,NE,55,6.0,9.0,72,0.00,,,0.00,0.000000,,2013-01-30 08:42:00,
2013-01-30 00:52:00,45.0,37.0,-100.00,NE,55,6.0,9.0,72,0.00,,,0.00,0.000000,,2013-01-30 08:52:00,
2013-01-30 01:00:00,45.0,37.0,-100.00,ENE,62,7.0,11.0,72,0.00,,,0.00,0.000000,,2013-01-30 09:00:00,
2013-01-30 01:32:00,45.0,37.0,-100.00,ENE,62,7.0,11.0,72,0.00,,,0.00,0.000000,,2013-01-30 09:32:00,
2013-01-30 01:42:00,45.0,37.0,-100.00,ENE,62,7.0,11.0,72,0.00,,,0.00,0.000000,,2013-01-30 09:42:00,
2013-01-30 01:52:00,45.0,37.0,-100.00,ENE,62,7.0,11.0,72,0.00,,,0.00,0.000000,,2013-01-30 09:52:00,
2013-01-30 02:00:00,45.0,37.0,-100.00,ENE,59,7.0,10.0,72,0.00,,,0.00,0.000000,,2013-01-30 10:00:00,
2013-01-30 02:22:00,45.0,37.0,-100.00,ENE,59,7.0,10.0,72,0.00,,,0.00,0.000000,,2013-01-30 10:22:00,
2013-01-30 02:32:00,45.0,37.0,-100.00,ENE,59,7.0,10.0,72,0.00,,,0.00,0.000000,,2013-01-30 10:32:00,
2013-01-30 02:42:00,45.0,37.0,-100.00,ENE,59,7.0,10.0,72,0.00,,,0.00,0.000000,,2013-01-30 10:42:00,
2013-01-30 02:52:00,45.0,37.0,-100.00,ENE,59,7.0,10.0,72,0.00,,,0.00,0.000000,,2013-01-30 10:52:00,
2013-01-30 03:33:00,45.0,37.0,-100.00,NE,56,6.0,10.0,74,0.00,,,0.00,0.000000,,2013-01-30 11:33:00,
2013-01-30 03:42:00,45.0,37.0,-100.00,NE,56,6.0,10.0,74,0.00,,,0.00,0.000000,,2013-01-30 11:42:00,
2013-01-30 03:52:00,45.0,37.0,-100.00,NE,56,6.0,10.0,74,0.00,,,0.00,0.000000,,2013-01-30 11:52:00,
2013-01-30 04:33:00,44.0,36.0,-100.00,NE,50,6.0,10.0,74,-99.99,,,-99.99,0.000000,,2013-01-30 12:33:00,
2013-01-30 05:23:00,44.0,36.0,-100.00,ENE,57,7.0,10.0,74,-99.99,,,0.00,0.000000,,2013-01-30 13:23:00,
2013-01-30 05:33:00,44.0,36.0,-100.00,ENE,57,7.0,10.0,74,-99.99,,,0.00,0.000000,,2013-01-30 13:33:00,
2013-01-30 05:43:00,44.0,36.0,-100.00,ENE,57,7.0,10.0,74,-99.99,,,0.00,0.000000,,2013-01-30 13:43:00,
2013-01-30 05:53:00,44.0,36.0,-100.00,ENE,57,7.0,10.0,74,-99.99,,,0.00,0.000000,,2013-01-30 13:53:00,
2013-01-30 06:33:00,44.0,37.0,-100.00,NE,51,5.0,9.0,75,-99.99,,,0.00,0.000000,,2013-01-30 14:33:00,
2013-01-30 06:43:00,44.0,37.0,-100.00,NE,51,5.0,9.0,75,-99.99,,,0.00,0.000000,,2013-01-30 14:43:00,
2013-01-30 07:33:00,44.0,36.0,-100.00,NE,41,4.0,8.0,74,-99.99,,,0.00,0.000000,,2013-01-30 15:33:00,
2013-01-30 08:33:00,48.0,39.0,-100.00,ENE,58,4.0,7.0,72,0.00,,,0.00,53.000000,,2013-01-30 16:33:00,
2013-01-30 09:33:00,54.0,41.0,-100.00,SW,219,2.0,6.0,61,-99.99,,,0.00,217.000000,,2013-01-30 17:33:00,
2013-01-30 10:00:00,55.0,39.0,-100.00,WNW,285,3.0,6.0,55,0.00,,,0.00,359.000000,,2013-01-30 18:00:00,
2013-01-30 10:33:00,55.0,39.0,-100.00,WNW,285,3.0,6.0,55,0.00,,,0.00,359.000000,,2013-01-30 18:33:00,
2013-01-30 10:43:00,55.0,39.0,-100.00,WNW,285,3.0,6.0,55,0.00,,,0.00,359.000000,,2013-01-30 18:43:00,
2013-01-30 10:52:00,55.0,39.0,-100.00,WNW,285,3.0,6.0,55,0.00,,,0.00,359.000000,,2013-01-30 18:52:00,
2013-01-30 11:00:00,57.0,40.0,-100.00,West,262,4.0,8.0,52,0.00,,,0.00,454.000000,,2013-01-30 19:00:00,
2013-01-30 11:33:00,57.0,40.0,-100.00,West,262,4.0,8.0,52,0.00,,,0.00,454.000000,,2013-01-30 19:33:00,
2013-01-30 11:43:00,57.0,40.0,-100.00,West,262,4.0,8.0,52,0.00,,,0.00,454.000000,,2013-01-30 19:43:00,
2013-01-30 11:53:00,57.0,40.0,-100.00,West,262,4.0,8.0,52,0.00,,,0.00,454.000000,,2013-01-30 19:53:00,
2013-01-30 12:00:00,58.0,42.0,-100.00,West,264,4.0,9.0,55,0.00,,,0.00,520.000000,,2013-01-30 20:00:00,
2013-01-30 12:22:00,58.0,42.0,-100.00,West,264,4.0,9.0,55,0.00,,,0.00,520.000000,,2013-01-30 20:22:00,
2013-01-30 12:33:00,58.0,42.0,-100.00,West,264,4.0,9.0,55,0.00,,,0.00,520.000000,,2013-01-30 20:33:00,
2013-01-30 12:42:00,58.0,42.0,-100.00,West,264,4.0,9.0,55,0.00,,,0.00,520.000000,,2013-01-30 20:42:00,
2013-01-30 12:53:00,58.0,42.0,-100.00,West,264,4.0,9.0,55,0.00,,,0.00,520.000000,,2013-01-30 20:53:00,
2013-01-30 13:00:00,59.0,42.0,-100.00,SSW,203,5.0,9.0,53,0.00,,,0.00,527.000000,,2013-01-30 21:00:00,
2013-01-30 13:23:00,59.0,42.0,-100.00,SSW,203,5.0,9.0,53,0.00,,,0.00,527.000000,,2013-01-30 21:23:00,
2013-01-30 13:32:00,59.0,42.0,-100.00,SSW,203,5.0,9.0,53,0.00,,,0.00,527.000000,,2013-01-30 21:32:00,
2013-01-30 13:43:00,59.0,42.0,-100.00,SSW,203,5.0,9.0,53,0.00,,,0.00,527.000000,,2013-01-30 21:43:00,
2013-01-30 13:52:00,59.0,42.0,-100.00,SSW,203,5.0,9.0,53,0.00,,,0.00,527.000000,,2013-01-30 21:52:00,
2013-01-30 14:00:00,60.0,42.0,-100.00,SW,216,4.0,9.0,51,0.00,,,0.00,526.000000,,2013-01-30 22:00:00,
2013-01-30 14:22:00,60.0,42.0,-100.00,SW,216,4.0,9.0,51,0.00,,,0.00,526.000000,,2013-01-30 22:22:00,
2013-01-30 14:33:00,60.0,42.0,-100.00,SW,216,4.0,9.0,51,0.00,,,0.00,526.000000,,2013-01-30 22:33:00,
2013-01-30 14:42:00,60.0,42.0,-100.00,SW,216,4.0,9.0,51,0.00,,,0.00,526.000000,,2013-01-30 22:42:00,
2013-01-30 14:52:00,60.0,42.0,-100.00,SW,216,4.0,9.0,51,0.00,,,0.00,526.000000,,2013-01-30 22:52:00,
2013-01-30 15:00:00,60.0,41.0,-100.00,SSW,206,5.0,10.0,50,0.00,,,0.00,426.000000,,2013-01-30 23:00:00,
2013-01-30 15:23:00,60.0,41.0,-100.00,SSW,206,5.0,10.0,50,0.00,,,0.00,426.000000,,2013-01-30 23:23:00,
2013-01-30 15:33:00,60.0,41.0,-100.00,SSW,206,5.0,10.0,50,0.00,,,0.00,426.000000,,2013-01-30 23:33:00,
2013-01-30 15:42:00,60.0,41.0,-100.00,SSW,206,5.0,10.0,50,0.00,,,0.00,426.000000,,2013-01-30 23:42:00,
2013-01-30 15:52:00,60.0,41.0,-100.00,SSW,206,5.0,10.0,50,0.00,,,0.00,426.000000,,2013-01-30 23:52:00,
2013-01-30 16:00:00,60.0,42.0,-100.00,SW,221,6.0,10.0,51,0.00,,,0.00,284.000000,,2013-01-31 00:00:00,
2013-01-30 16:32:00,60.0,42.0,-100.00,SW,221,6.0,10.0,51,0.00,,,0.00,284.000000,,2013-01-31 00:32:00,
2013-01-30 16:42:00,60.0,42.0,-100.00,SW,221,6.0,10.0,51,0.00,,,0.00,284.000000,,2013-01-31 00:42:00,
2013-01-30 16:53:00,60.0,42.0,-100.00,SW,221,6.0,10.0,51,0.00,,,0.00,284.000000,,2013-01-31 00:53:00,
2013-01-30 17:00:00,57.0,38.0,-100.00,SW,226,4.0,8.0,49,0.00,,,0.00,108.000000,,2013-01-31 01:00:00,
2013-01-30 17:32:00,57.0,38.0,-100.00,SW,226,4.0,8.0,49,0.00,,,0.00,108.000000,,2013-01-31 01:32:00,
2013-01-30 17:42:00,57.0,38.0,-100.00,SW,226,4.0,8.0,49,0.00,,,0.00,108.000000,,2013-01-31 01:42:00,
2013-01-30 17:52:00,57.0,38.0,-100.00,SW,226,4.0,8.0,49,0.00,,,0.00,108.000000,,2013-01-31 01:52:00,
2013-01-30 18:00:00,54.0,39.0,-100.00,North,9,2.0,4.0,56,0.00,,,0.00,4.000000,,2013-01-31 02:00:00,
2013-01-30 18:22:00,54.0,39.0,-100.00,North,9,2.0,4.0,56,0.00,,,0.00,4.000000,,2013-01-31 02:22:00,
2013-01-30 18:32:00,54.0,39.0,-100.00,North,9,2.0,4.0,56,0.00,,,0.00,4.000000,,2013-01-31 02:32:00,
2013-01-30 18:42:00,54.0,39.0,-100.00,North,9,2.0,4.0,56,0.00,,,0.00,4.000000,,2013-01-31 02:42:00,
2013-01-30 18:52:00,54.0,39.0,-100.00,North,9,2.0,4.0,56,0.00,,,0.00,4.000000,,2013-01-31 02:52:00,
2013-01-30 19:00:00,51.0,39.0,-100.00,ENE,59,4.0,5.0,64,0.00,,,0.00,0.000000,,2013-01-31 03:00:00,
2013-01-30 19:32:00,51.0,39.0,-100.00,ENE,59,4.0,5.0,64,0.00,,,0.00,0.000000,,2013-01-31 03:32:00,
2013-01-30 19:42:00,51.0,39.0,-100.00,ENE,59,4.0,5.0,64,0.00,,,0.00,0.000000,,2013-01-31 03:42:00,
2013-01-30 19:52:00,51.0,39.0,-100.00,ENE,59,4.0,5.0,64,0.00,,,0.00,0.000000,,2013-01-31 03:52:00,
2013-01-30 20:00:00,50.0,40.0,-100.00,ENE,61,5.0,6.0,68,0.00,,,0.00,0.000000,,2013-01-31 04:00:00,
2013-01-30 20:32:00,50.0,40.0,-100.00,ENE,61,5.0,6.0,68,0.00,,,0.00,0.000000,,2013-01-31 04:32:00,
2013-01-30 20:42:00,50.0,40.0,-100.00,ENE,61,5.0,6.0,68,0.00,,,0.00,0.000000,,2013-01-31 04:42:00,
2013-01-30 20:52:00,50.0,40.0,-100.00,ENE,61,5.0,6.0,68,0.00,,,0.00,0.000000,,2013-01-31 04:52:00,
2013-01-30 21:00:00,50.0,39.0,-100.00,ENE,72,3.0,6.0,66,0.00,,,0.00,0.000000,,2013-01-31 05:00:00,
2013-01-30 21:42:00,50.0,39.0,-100.00,ENE,72,3.0,6.0,66,0.00,,,0.00,0.000000,,2013-01-31 05:42:00,
2013-01-30 21:52:00,50.0,39.0,-100.00,ENE,72,3.0,6.0,66,0.00,,,0.00,0.000000,,2013-01-31 05:52:00,